OpenBCM V1.13 (Linux)

Packet Radio Mailbox

DB0FHN

[JN59NK Nuernberg]

 Login: GUEST





  
F1EBE  > KEPS     04.03.03 01:37l 105 Lines 5488 Bytes #999 (0) @ AMSAT
BID : 23456_F8KGK
Read: DB0FHN GUEST
Subj: 2Line Orbital Elements 03061.AMSAT
Path: DB0FHN<DB0ZWI<DB0HOT<DB0MRW<DB0RGB<OK0PPL<RZ6HXA<IK1ZNW<IK6PYS<TU5EX<
      F6BZU<F6BZU<F5KCK<F8KAE<F8KGK
Sent: 030303/0850Z @:F8KGK.FNOR.FRA.EU #:23456 [Rouen]xFBB7.04 $:23456_F8KGK
From: F1EBE@F8KGK.FNOR.FRA.EU
To  : KEPS@AMSAT



AO-7                    
1 07530U 74089B   03058.70983694 -.00000029  00000-0  10000-3 0  1645
2 07530 101.7595 106.4109 0012206  61.4717 298.7582 12.53564579294332
AO-10                   
1 14129U 83058B   03053.29347507 -.00000135  00000-0  10000-3 0  9207
2 14129  25.9661 163.6642 6025305 329.8586   6.1874  2.05867335120141
UO-11                   
1 14781U 84021B   03060.91707583  .00000797  00000-0  11770-3 0   842
2 14781  98.1192  34.9282 0009453 167.1639 192.9813 14.78022204 17916
UO-14                   
1 20437U 90005B   03061.17368320  .00000037  00000-0  29683-4 0  1769
2 20437  98.2687 104.2311 0010800 162.6533 197.5013 14.31240603684159
AO-16                   
1 20439U 90005D   03060.20810496  .00000043  00000-0  31907-4 0  8586
2 20439  98.3152 115.0585 0010807 172.5990 187.5366 14.31474835684051
DO-17                   
1 20440U 90005E   03059.21656542  .00000074  00000-0  43289-4 0  7306
2 20440  98.3365 118.0242 0010910 174.2993 185.8315 14.31753389683989
WO-18                   
1 20441U 90005F   03060.53776461  .00000083  00000-0  47005-4 0   232
2 20441  98.3318 118.4972 0011693 171.4471 188.6913 14.31556979684152
LO-19                   
1 20442U 90005G   03060.23539055  .00000077  00000-0  44520-4 0  9743
2 20442  98.3448 121.2499 0011741 171.6965 188.4415 14.31720249684166
FO-20                   
1 20480U 90013C   03061.47314087  .00000020  00000-0  12160-3 0  4665
2 20480  99.0473  21.9777 0540464 336.9409  20.8231 12.83331047612049
RS-12/13                
1 21089U 91007A   03061.40702849  .00000067  00000-0  55054-4 0  4947
2 21089  82.9239 172.5987 0027612 253.4779 106.3343 13.74405547605415
UO-22                   
1 21575U 91050B   03061.53573829  .00000210  00000-0  80975-4 0  7384
2 21575  98.1415  53.0543 0008488  95.0654 265.1504 14.39161613610002
KO-23                   
1 22077U 92052B   03061.22917444 -.00000037  00000-0  10000-3 0  1581
2 22077  66.0864 101.3098 0015731 270.8592  89.0624 12.86408900495805
AO-27                   
1 22825U 93061C   03060.88603877  .00000057  00000-0  38917-4 0  4982
2 22825  98.2746  90.0070 0007624 222.0858 137.9738 14.28946060491494
IO-26                   
1 22826U 93061D   03058.67419602  .00000091  00000-0  51872-4 0  3216
2 22826  98.2740  89.0260 0007997 232.2227 127.8225 14.29169206491224
KO-25                   
1 22828U 93061F   03060.54219645  .00000057  00000-0  38405-4 0  4379
2 22828  98.2709  91.0645 0009264 201.1836 158.8975 14.29510952459690
POSAT                   
1 22829U 93061G   03061.52912629  .00000138  00000-0  69846-4 0  4633
2 22829  98.2716  92.6127 0009153 198.4632 161.6230 14.29773406491765
RS-15                   
1 23439U 94085A   03058.87234134 -.00000040  00000-0  58228-4 0  6840
2 23439  64.8161  26.4361 0146732 113.4257 248.2175 11.27547638336642
FO-29                   
1 24278U 96046B   03058.93430377 -.00000002  00000-0  34138-4 0  5666
2 24278  98.5380 208.8830 0350368 192.1051 167.1504 13.52873029322574
TO-31                   
1 25396U 98043C   03060.85227016 -.00000043  00000-0  00000+0 0  8276
2 25396  98.6235 137.7318 0003618  98.8854 261.2734 14.23514837241134
GO-32                   
1 25397U 98043D   03058.97994936  .00000024  00000-0  29908-4 0  1464
2 25397  98.6209 134.7707 0002142 108.6861 251.4551 14.22961639240833
SO-33                   
1 25509U 98061B   03060.49235055  .00000438  00000-0  78117-4 0  7910
2 25509  31.4306  91.4742 0356929  38.2719 324.2681 14.27446558226878
PO-34                   
1 25520U 98064B   03061.42544456  .00002117  00000-0  10353-3 0  6437
2 25520  28.4629 144.8845 0005944 119.8608 240.2577 15.13932928239381
ISS             
1 25544U 98067A   03061.51525682  .00025424  00000-0  32521-3 0  7412
2 25544  51.6348 196.0109 0011796 265.8608 214.0417 15.58974949244363
UO-36                   
1 25693U 99021A   03061.26848400  .00000524  00000-0  94782-4 0  7519
2 25693  64.5616 334.9751 0021701 315.7480  44.1883 14.76402016207981
OO-38                   
1 26063U 00004C   03059.17396963  .00000075  00000-0  46524-4 0  7302
2 26063 100.2064 115.4925 0036729 260.0355  99.6675 14.35484687161760
SO-41                   
1 26545U 00057A   03058.87694817  .00000530  00000-0  89568-4 0  4207
2 26545  64.5600   3.3132 0051403 237.3870 122.2258 14.79000903130605
MO-46                   
1 26548U 00057D   03058.88506222  .00000696  00000-0  10621-3 0  4254
2 26548  64.5591 356.0742 0044744 236.6743 123.0105 14.81295908130753
SO-42                   
1 26549U 00057E   03058.91972262  .00000480  00000-0  84643-4 0  7092
2 26549  64.5539   7.3451 0055967 237.2066 122.3640 14.77937556130521
AO-40                   
1 26609U 00072B   03058.16686962 -.00000267  00000-0  10000-3 0  3121
2 26609   8.1401  62.4789 7944119 148.1042 305.2468  1.25596203 10697
PCsat                   
1 26931U 01043C   03058.97305784  .00000074  00000-0  61665-4 0  4295
2 26931  67.0472 231.4029 0005129 268.6778  91.3737 14.29119052 73690
NO-45                   
1 26932U 01043D   03059.15985973  .00000017  00000-0  39305-4 0  4070
2 26932  67.0538 230.6248 0004621 242.9855 117.0775 14.29296881 73745
AO-49                   
1 27605U 02058A   03058.75559752  .00000304  00000-0  70155-4 0   727
2 27605  64.5550 169.3441 0035918 110.0724 250.4248 14.71384354 10169
SO-50                   
1 27607U 02058C   03058.75923682  .00000520  00000-0  10784-3 0   682
2 27607  64.5520 169.8355 0036910 105.9162 254.6008 14.69921386 10157


Read previous mail | Read next mail


 24.06.2026 12:03:22lGo back Go up